,,Stat5,,Stat1,,Stat2,,Stat3,,Stat4,,Wind1,,Wind1,
time,status,PA1M_AVG,status,PR1M_SUM,status,RH1M_AVG,status,SR1M_AVG,status,TA1M_AVG,status,W1dAve1m,status,W1sAve1m,
2003-01-04, 00:00:00,VALID,920.253,VALID,0,VALID,89.6812,VALID,-0.0509425,VALID,20.7709,VALID,166,VALID,0.800987,
2003-01-04, 00:01:00,VALID,920.273,VALID,0,VALID,89.7715,VALID,-0.0339617,VALID,20.7808,VALID,179,VALID,0.824219,
2003-01-04, 00:02:00,VALID,920.274,VALID,0,VALID,89.7537,VALID,-0.0509425,VALID,20.7808,VALID,198,VALID,0.367821,
2003-01-04, 00:03:00,VALID,920.266,VALID,0,VALID,89.76,VALID,-0.0169808,VALID,20.7938,VALID,153,VALID,0.379856,
2003-01-04, 00:04:00,VALID,920.254,VALID,0,VALID,89.7791,VALID,0,VALID,20.7835,VALID,172,VALID,0.308799,
2003-01-04, 00:05:00,VALID,920.263,VALID,0,VALID,89.8668,VALID,0,VALID,20.7544,VALID,198,VALID,0.0659055,
2003-01-04, 00:06:00,VALID,920.249,VALID,0,VALID,89.9965,VALID,-0.0169808,VALID,20.7517,VALID,186,VALID,0.169207,
2003-01-04, 00:07:00,VALID,920.262,VALID,0,VALID,90.0703,VALID,-0.0509425,VALID,20.7388,VALID,161,VALID,0.468117,
2003-01-04, 00:08:00,VALID,920.262,VALID,0,VALID,90.0868,VALID,0,VALID,20.7127,VALID,58,VALID,0.2625,
2003-01-04, 00:09:00,VALID,920.264,VALID,0,VALID,90.2229,VALID,-0.0169808,VALID,20.6874,VALID,49,VALID,0.628289,
2003-01-04, 00:10:00,VALID,920.271,VALID,0,VALID,90.3882,VALID,-0.0339617,VALID,20.6384,VALID,27,VALID,0.353571,
2003-01-04, 00:11:00,VALID,920.263,VALID,0,VALID,90.5217,VALID,0,VALID,20.5834,VALID,17,VALID,0.427632,
2003-01-04, 00:12:00,VALID,920.268,VALID,0,VALID,90.8116,VALID,0,VALID,20.5123,VALID,23,VALID,0.456055,
2003-01-04, 00:13:00,VALID,920.271,VALID,0,VALID,91.0939,VALID,0,VALID,20.4638,VALID,28,VALID,0.300223,
2003-01-04, 00:14:00,VALID,920.274,VALID,0,VALID,91.2478,VALID,-0.0169808,VALID,20.438,VALID,26,VALID,0.569901,
2003-01-04, 00:15:00,VALID,920.277,VALID,0,VALID,91.2109,VALID,-0.0169808,VALID,20.4024,VALID,13,VALID,0.631027,
2003-01-04, 00:16:00,VALID,920.287,VALID,0,VALID,91.2389,VALID,0,VALID,20.3251,VALID,13,VALID,0.469752,
2003-01-04, 00:17:00,VALID,920.278,VALID,0,VALID,91.436,VALID,0,VALID,20.254,VALID,13,VALID,0.219172,
2003-01-04, 00:18:00,VALID,920.268,VALID,0,VALID,91.6039,VALID,-0.0169808,VALID,20.1727,VALID,12,VALID,0.214627,
2003-01-04, 00:19:00,VALID,920.242,VALID,0,VALID,91.7526,VALID,-0.0169808,VALID,20.1345,VALID,26,VALID,0.0289634,
2003-01-04, 00:20:00,VALID,920.234,VALID,0,VALID,92.0807,VALID,0,VALID,20.0919,VALID,118,VALID,0.324319,
2003-01-04, 00:21:00,VALID,920.218,VALID,0,VALID,92.2892,VALID,0,VALID,20.0698,VALID,155,VALID,0.394727,
2003-01-04, 00:22:00,VALID,920.193,VALID,0,VALID,92.494,VALID,0,VALID,20.0442,VALID,174,VALID,0.737965,
2003-01-04, 00:23:00,VALID,920.182,VALID,0,VALID,92.6453,VALID,0,VALID,20.0537,VALID,97,VALID,0.281696,
2003-01-04, 00:24:00,VALID,920.175,VALID,0,VALID,92.5601,VALID,0,VALID,20.0435,VALID,34,VALID,0.208265,
2003-01-04, 00:25:00,VALID,920.166,VALID,0,VALID,92.5525,VALID,0,VALID,20.0146,VALID,34,VALID,0.000217014,
2003-01-04, 00:26:00,VALID,920.173,VALID,0,VALID,92.5092,VALID,0,VALID,19.9562,VALID,34,VALID,0.0731908,
2003-01-04, 00:27:00,VALID,920.166,VALID,0,VALID,92.7903,VALID,0,VALID,19.9115,VALID,34,VALID,0,
2003-01-04, 00:28:00,VALID,920.155,VALID,0,VALID,93.1272,VALID,0,VALID,19.872,VALID,34,VALID,0.000976563,
2003-01-04, 00:29:00,VALID,920.154,VALID,0,VALID,93.229,VALID,0,VALID,19.8655,VALID,34,VALID,0,
2003-01-04, 00:30:00,VALID,920.149,VALID,0,VALID,93.1794,VALID,0,VALID,19.8401,VALID,34,VALID,0,
2003-01-04, 00:31:00,VALID,920.14,VALID,0,VALID,93.2442,VALID,0,VALID,19.8178,VALID,34,VALID,0,
2003-01-04, 00:32:00,VALID,920.117,VALID,0,VALID,93.4248,VALID,0,VALID,19.8051,VALID,34,VALID,0,
2003-01-04, 00:33:00,VALID,920.115,VALID,0,VALID,93.5787,VALID,0,VALID,19.7884,VALID,34,VALID,0,
2003-01-04, 00:34:00,VALID,920.111,VALID,0,VALID,93.5787,VALID,-0.0169808,VALID,19.7887,VALID,107,VALID,0.240498,
2003-01-04, 00:35:00,VALID,920.107,VALID,0,VALID,93.6549,VALID,0,VALID,19.7559,VALID,165,VALID,0.383003,
2003-01-04, 00:36:00,VALID,920.1,VALID,0,VALID,93.8063,VALID,0,VALID,19.7432,VALID,163,VALID,0.575321,
2003-01-04, 00:37:00,VALID,920.079,VALID,0,VALID,94.1204,VALID,0,VALID,19.7435,VALID,161,VALID,0.383446,
2003-01-04, 00:38:00,VALID,920.075,VALID,0,VALID,94.0364,VALID,0.0169808,VALID,19.7594,VALID,100,VALID,0.345439,
2003-01-04, 00:39:00,VALID,920.068,VALID,0,VALID,94.0339,VALID,-0.0169808,VALID,19.7691,VALID,131,VALID,0.184375,
2003-01-04, 00:40:00,VALID,920.057,VALID,0,VALID,94.0377,VALID,-0.0169808,VALID,19.7758,VALID,116,VALID,0.142578,
2003-01-04, 00:41:00,VALID,920.041,VALID,0,VALID,94.0784,VALID,-0.0169808,VALID,19.7763,VALID,120,VALID,0.414063,
2003-01-04, 00:42:00,VALID,920.048,VALID,0,VALID,93.6982,VALID,0,VALID,19.7661,VALID,107,VALID,0.0170641,
2003-01-04, 00:43:00,VALID,920.027,VALID,0,VALID,93.454,VALID,0,VALID,19.7213,VALID,107,VALID,0,
2003-01-04, 00:44:00,VALID,920.014,VALID,0,VALID,93.6486,VALID,0,VALID,19.6788,VALID,107,VALID,0,
2003-01-04, 00:45:00,VALID,919.995,VALID,0,VALID,93.8241,VALID,0,VALID,19.6726,VALID,107,VALID,0,
2003-01-04, 00:46:00,VALID,919.983,VALID,0,VALID,94.0606,VALID,0,VALID,19.6729,VALID,107,VALID,0,
2003-01-04, 00:47:00,VALID,919.966,VALID,0,VALID,94.0987,VALID,0.0169808,VALID,19.653,VALID,107,VALID,0,
2003-01-04, 00:48:00,VALID,919.951,VALID,0,VALID,94.1623,VALID,-0.0169808,VALID,19.6664,VALID,107,VALID,0,
2003-01-04, 00:49:00,VALID,919.932,VALID,0,VALID,94.2462,VALID,-0.0339617,VALID,19.6828,VALID,107,VALID,0.0102796,
2003-01-04, 00:50:00,VALID,919.916,VALID,0,VALID,94.2094,VALID,0,VALID,19.7154,VALID,120,VALID,0.25185,
2003-01-04, 00:51:00,VALID,919.91,VALID,0,VALID,94.2208,VALID,-0.0169808,VALID,19.7181,VALID,223,VALID,0.346917,
2003-01-04, 00:52:00,VALID,919.9,VALID,0,VALID,94.1165,VALID,-0.0169808,VALID,19.7176,VALID,228,VALID,0.154297,
2003-01-04, 00:53:00,VALID,919.886,VALID,0,VALID,94.0491,VALID,-0.0169808,VALID,19.7181,VALID,228,VALID,0.0604968,
2003-01-04, 00:54:00,VALID,919.872,VALID,0,VALID,94.1941,VALID,-0.101885,VALID,19.7181,VALID,228,VALID,0.191106,
2003-01-04, 00:55:00,VALID,919.863,VALID,0,VALID,94.2615,VALID,-0.152827,VALID,19.7395,VALID,228,VALID,0.0842483,
2003-01-04, 00:56:00,VALID,919.825,VALID,0,VALID,94.3658,VALID,-0.101885,VALID,19.7457,VALID,227,VALID,0.145633,
2003-01-04, 00:57:00,VALID,919.81,VALID,0,VALID,94.367,VALID,-0.0849042,VALID,19.7683,VALID,227,VALID,0.0386029,
2003-01-04, 00:58:00,VALID,919.785,VALID,0,VALID,93.9029,VALID,-0.101885,VALID,19.7549,VALID,227,VALID,0.0277344,
2003-01-04, 00:59:00,VALID,919.776,VALID,0,VALID,93.3816,VALID,-0.0849042,VALID,19.7067,VALID,227,VALID,0,
2003-01-04, 01:00:00,VALID,919.776,VALID,0,VALID,93.7376,VALID,-0.101885,VALID,19.6614,VALID,227,VALID,0,
2003-01-04, 01:01:00,VALID,919.78,VALID,0,VALID,93.7147,VALID,-0.118866,VALID,19.6164,VALID,227,VALID,0,
2003-01-04, 01:02:00,VALID,919.769,VALID,0,VALID,93.8622,VALID,-0.101885,VALID,19.5742,VALID,227,VALID,0,
2003-01-04, 01:03:00,VALID,919.774,VALID,0,VALID,93.8927,VALID,-0.135847,VALID,19.5091,VALID,227,VALID,0.0714844,
2003-01-04, 01:04:00,VALID,919.778,VALID,0,VALID,93.7656,VALID,-0.118866,VALID,19.4487,VALID,227,VALID,0.283053,
2003-01-04, 01:05:00,VALID,919.784,VALID,0,VALID,93.8381,VALID,-0.118866,VALID,19.3487,VALID,95,VALID,0.393709,
2003-01-04, 01:06:00,VALID,919.771,VALID,0,VALID,94.161,VALID,-0.135847,VALID,19.2446,VALID,73,VALID,0.343349,
2003-01-04, 01:07:00,VALID,919.773,VALID,0,VALID,94.7206,VALID,-0.0849042,VALID,19.1927,VALID,73,VALID,0.284856,
2003-01-04, 01:08:00,VALID,919.764,VALID,0,VALID,95.1109,VALID,-0.0339617,VALID,19.1564,VALID,73,VALID,0.397804,
2003-01-04, 01:09:00,VALID,919.748,VALID,0,VALID,95.4365,VALID,-0.0339617,VALID,19.1206,VALID,73,VALID,0.373197,
2003-01-04, 01:10:00,VALID,919.733,VALID,0,VALID,95.6298,VALID,-0.0339617,VALID,19.1084,VALID,73,VALID,0.251953,
2003-01-04, 01:11:00,VALID,919.715,VALID,0,VALID,95.8078,VALID,-0.0339617,VALID,19.0791,VALID,73,VALID,0.142578,
2003-01-04, 01:12:00,VALID,919.697,VALID,0,VALID,96.1155,VALID,-0.0339617,VALID,19.0694,VALID,73,VALID,0.100561,
2003-01-04, 01:13:00,VALID,919.674,VALID,0,VALID,96.305,VALID,-0.0169808,VALID,19.0689,VALID,73,VALID,0.0899493,
2003-01-04, 01:14:00,VALID,919.644,VALID,0,VALID,96.3164,VALID,-0.0169808,VALID,19.0761,VALID,73,VALID,0.260817,
2003-01-04, 01:15:00,VALID,919.632,VALID,0,VALID,96.2745,VALID,-0.0339617,VALID,19.0662,VALID,80,VALID,0.260691,
2003-01-04, 01:16:00,VALID,919.61,VALID,0,VALID,96.4042,VALID,-0.0339617,VALID,19.0503,VALID,124,VALID,0.40625,
2003-01-04, 01:17:00,VALID,919.589,VALID,0,VALID,96.6483,VALID,0,VALID,19.0431,VALID,144,VALID,0.362179,
2003-01-04, 01:18:00,VALID,919.566,VALID,0,VALID,96.6585,VALID,0,VALID,19.0726,VALID,149,VALID,0.463682,
2003-01-04, 01:19:00,VALID,919.546,VALID,0,VALID,96.8263,VALID,0,VALID,19.0888,VALID,155,VALID,0.874428,
2003-01-04, 01:20:00,VALID,919.514,VALID,0,VALID,96.8085,VALID,0.0169808,VALID,19.1276,VALID,154,VALID,0.738782,
2003-01-04, 01:21:00,VALID,919.495,VALID,0,VALID,96.942,VALID,0,VALID,19.1599,VALID,176,VALID,0.565245,
2003-01-04, 01:22:00,VALID,919.477,VALID,0,VALID,96.9509,VALID,-0.0169808,VALID,19.2056,VALID,143,VALID,0.560981,
2003-01-04, 01:23:00,VALID,919.46,VALID,0,VALID,96.8073,VALID,-0.0509425,VALID,19.2116,VALID,145,VALID,0.565505,
2003-01-04, 01:24:00,VALID,919.456,VALID,0,VALID,96.6165,VALID,0,VALID,19.2121,VALID,126,VALID,0.423943,
2003-01-04, 01:25:00,VALID,919.438,VALID,0,VALID,96.5211,VALID,-0.0169808,VALID,19.1949,VALID,112,VALID,0.350781,
2003-01-04, 01:26:00,VALID,919.418,VALID,0,VALID,96.5555,VALID,-0.0509425,VALID,19.1986,VALID,143,VALID,0.651933,
2003-01-04, 01:27:00,VALID,919.404,VALID,0,VALID,96.7678,VALID,-0.0509425,VALID,19.2111,VALID,152,VALID,0.988715,
2003-01-04, 01:28:00,VALID,919.397,VALID,0,VALID,96.7297,VALID,-0.0509425,VALID,19.2598,VALID,175,VALID,0.896998,
2003-01-04, 01:29:00,VALID,919.361,VALID,0,VALID,96.731,VALID,-0.0509425,VALID,19.3055,VALID,154,VALID,0.814648,
2003-01-04, 01:30:00,VALID,919.351,VALID,0,VALID,96.572,VALID,0,VALID,19.3408,VALID,150,VALID,0.684827,
2003-01-04, 01:31:00,VALID,919.342,VALID,0,VALID,96.3647,VALID,0,VALID,19.3602,VALID,144,VALID,0.606497,
2003-01-04, 01:32:00,VALID,919.335,VALID,0,VALID,96.1498,VALID,0.0169808,VALID,19.3503,VALID,142,VALID,0.431445,
2003-01-04, 01:33:00,VALID,919.333,VALID,0,VALID,95.968,VALID,0,VALID,19.3607,VALID,139,VALID,0.338742,
2003-01-04, 01:34:00,VALID,919.308,VALID,0,VALID,95.9286,VALID,-0.0169808,VALID,19.3478,VALID,133,VALID,0.395481,
2003-01-04, 01:35:00,VALID,919.295,VALID,0,VALID,95.954,VALID,0,VALID,19.3475,VALID,151,VALID,1.07617,
2003-01-04, 01:36:00,VALID,919.269,VALID,0,VALID,95.9502,VALID,-0.0169808,VALID,19.3701,VALID,155,VALID,1.1861,
2003-01-04, 01:37:00,VALID,919.273,VALID,0,VALID,95.8942,VALID,-0.0339617,VALID,19.4126,VALID,154,VALID,1.47255,
2003-01-04, 01:38:00,VALID,919.268,VALID,0,VALID,95.6641,VALID,0,VALID,19.4509,VALID,126,VALID,1.0796,
2003-01-04, 01:39:00,VALID,919.264,VALID,0,VALID,95.4085,VALID,-0.0169808,VALID,19.4698,VALID,133,VALID,1.14806,
2003-01-04, 01:40:00,VALID,919.246,VALID,0,VALID,95.2534,VALID,-0.0169808,VALID,19.4961,VALID,150,VALID,0.954181,
2003-01-04, 01:41:00,VALID,919.236,VALID,0,VALID,95.0728,VALID,-0.0679233,VALID,19.5322,VALID,120,VALID,1.13066,
2003-01-04, 01:42:00,VALID,919.205,VALID,0,VALID,94.8782,VALID,-0.0339617,VALID,19.5384,VALID,132,VALID,0.882011,
2003-01-04, 01:43:00,VALID,919.178,VALID,0,VALID,94.8388,VALID,-0.0679233,VALID,19.5511,VALID,124,VALID,0.920898,
2003-01-04, 01:44:00,VALID,919.172,VALID,0,VALID,94.8007,VALID,-0.0339617,VALID,19.561,VALID,112,VALID,0.87315,
2003-01-04, 01:45:00,VALID,919.164,VALID,0,VALID,94.7612,VALID,0,VALID,19.5608,VALID,118,VALID,0.677632,
2003-01-04, 01:46:00,VALID,919.151,VALID,0,VALID,94.6977,VALID,-0.0339617,VALID,19.5575,VALID,128,VALID,0.260346,
2003-01-04, 01:47:00,VALID,919.148,VALID,0,VALID,94.6595,VALID,0,VALID,19.5374,VALID,117,VALID,0.751562,
2003-01-04, 01:48:00,VALID,919.148,VALID,0,VALID,94.6176,VALID,-0.0169808,VALID,19.5377,VALID,137,VALID,0.566189,
2003-01-04, 01:49:00,VALID,919.131,VALID,0,VALID,94.5985,VALID,-0.0169808,VALID,19.5478,VALID,134,VALID,0.67652,
2003-01-04, 01:50:00,VALID,919.118,VALID,0,VALID,94.4802,VALID,-0.0169808,VALID,19.5645,VALID,148,VALID,1.38836,
2003-01-04, 01:51:00,VALID,919.124,VALID,0,VALID,94.3327,VALID,-0.0169808,VALID,19.5737,VALID,142,VALID,1.35417,
2003-01-04, 01:52:00,VALID,919.124,VALID,0,VALID,94.2513,VALID,0,VALID,19.6062,VALID,158,VALID,1.0991,
2003-01-04, 01:53:00,VALID,919.125,VALID,0,VALID,94.161,VALID,0.0339617,VALID,19.6177,VALID,153,VALID,0.90625,
2003-01-04, 01:54:00,VALID,919.125,VALID,0,VALID,94.1585,VALID,0.0169808,VALID,19.6177,VALID,148,VALID,0.799137,
2003-01-04, 01:55:00,VALID,919.136,VALID,0,VALID,94.2704,VALID,0,VALID,19.6174,VALID,151,VALID,0.978207,
2003-01-04, 01:56:00,VALID,919.119,VALID,0,VALID,94.3505,VALID,0.0509425,VALID,19.6018,VALID,145,VALID,0.85773,
2003-01-04, 01:57:00,VALID,919.13,VALID,0,VALID,94.4815,VALID,-0.0169808,VALID,19.5695,VALID,138,VALID,0.820513,
2003-01-04, 01:58:00,VALID,919.114,VALID,0,VALID,94.6773,VALID,0.0169808,VALID,19.5334,VALID,143,VALID,1.15921,
2003-01-04, 01:59:00,VALID,919.106,VALID,0,VALID,94.7333,VALID,0.0339617,VALID,19.5046,VALID,146,VALID,1.0588,
2003-01-04, 02:00:00,VALID,919.102,VALID,0,VALID,94.7307,VALID,0.0339617,VALID,19.4882,VALID,120,VALID,0.847656,
2003-01-04, 02:01:00,VALID,919.09,VALID,0,VALID,94.671,VALID,0.0339617,VALID,19.4984,VALID,114,VALID,0.516493,
2003-01-04, 02:02:00,VALID,919.086,VALID,0,VALID,94.5883,VALID,-0.0169808,VALID,19.5014,VALID,146,VALID,0.841427,
2003-01-04, 02:03:00,VALID,919.079,VALID,0,VALID,94.367,VALID,0,VALID,19.5016,VALID,130,VALID,1.49959,
2003-01-04, 02:04:00,VALID,919.076,VALID,0,VALID,94.0517,VALID,0,VALID,19.5339,VALID,103,VALID,1.24442,
2003-01-04, 02:05:00,VALID,919.067,VALID,0,VALID,93.7745,VALID,0,VALID,19.5695,VALID,141,VALID,1.33361,
2003-01-04, 02:06:00,VALID,919.069,VALID,0,VALID,93.5697,VALID,0,VALID,19.6082,VALID,140,VALID,1.29276,
2003-01-04, 02:07:00,VALID,919.055,VALID,0,VALID,93.4477,VALID,-0.0169808,VALID,19.6276,VALID,133,VALID,0.879464,
2003-01-04, 02:08:00,VALID,919.047,VALID,0,VALID,93.3981,VALID,-0.0509425,VALID,19.6423,VALID,141,VALID,1.07592,
2003-01-04, 02:09:00,VALID,919.028,VALID,0,VALID,93.3243,VALID,-0.101885,VALID,19.6386,VALID,139,VALID,1.59961,
2003-01-04, 02:10:00,VALID,919.027,VALID,0,VALID,93.2188,VALID,-0.0509425,VALID,19.6577,VALID,123,VALID,0.920641,
2003-01-04, 02:11:00,VALID,919.021,VALID,0,VALID,93.1768,VALID,-0.101885,VALID,19.6547,VALID,132,VALID,1.13055,
2003-01-04, 02:12:00,VALID,919.014,VALID,0,VALID,93.1132,VALID,-0.101885,VALID,19.6582,VALID,126,VALID,1.09375,
2003-01-04, 02:13:00,VALID,919.015,VALID,0,VALID,92.9785,VALID,-0.0679233,VALID,19.6746,VALID,143,VALID,1.58984,
2003-01-04, 02:14:00,VALID,919.024,VALID,0,VALID,92.7305,VALID,-0.0679233,VALID,19.6838,VALID,152,VALID,1.96755,
2003-01-04, 02:15:00,VALID,919.008,VALID,0,VALID,92.3274,VALID,-0.0169808,VALID,19.7191,VALID,141,VALID,1.55749,
2003-01-04, 02:16:00,VALID,919.003,VALID,0,VALID,92.0794,VALID,-0.0679233,VALID,19.7773,VALID,148,VALID,1.19679,
2003-01-04, 02:17:00,VALID,918.992,VALID,0,VALID,91.9421,VALID,-0.0509425,VALID,19.7967,VALID,144,VALID,1.19271,
2003-01-04, 02:18:00,VALID,918.975,VALID,0,VALID,91.9128,VALID,-0.0849042,VALID,19.8163,VALID,142,VALID,1.1381,
2003-01-04, 02:19:00,VALID,918.964,VALID,0,VALID,91.8073,VALID,-0.101885,VALID,19.8131,VALID,136,VALID,1.68359,
2003-01-04, 02:20:00,VALID,918.956,VALID,0,VALID,91.6789,VALID,-0.101885,VALID,19.8225,VALID,135,VALID,1.62479,
2003-01-04, 02:21:00,VALID,918.934,VALID,0,VALID,91.6344,VALID,-0.0679233,VALID,19.8419,VALID,127,VALID,0.684095,
2003-01-04, 02:22:00,VALID,918.926,VALID,0,VALID,91.5937,VALID,-0.0849042,VALID,19.8454,VALID,117,VALID,0.963816,
2003-01-04, 02:23:00,VALID,918.895,VALID,0,VALID,91.614,VALID,-0.101885,VALID,19.8521,VALID,106,VALID,0.718555,
2003-01-04, 02:24:00,VALID,918.891,VALID,0,VALID,91.7386,VALID,-0.101885,VALID,19.8233,VALID,134,VALID,1.35312,
2003-01-04, 02:25:00,VALID,918.869,VALID,0,VALID,91.7514,VALID,-0.0849042,VALID,19.7937,VALID,130,VALID,0.946514,
2003-01-04, 02:26:00,VALID,918.853,VALID,0,VALID,91.7361,VALID,-0.0849042,VALID,19.787,VALID,123,VALID,0.99301,
2003-01-04, 02:27:00,VALID,918.825,VALID,0,VALID,91.7526,VALID,-0.101885,VALID,19.7872,VALID,111,VALID,0.950521,
2003-01-04, 02:28:00,VALID,918.802,VALID,0,VALID,91.8035,VALID,-0.0849042,VALID,19.7773,VALID,117,VALID,0.866186,
2003-01-04, 02:29:00,VALID,918.789,VALID,0,VALID,91.8976,VALID,-0.0849042,VALID,19.7581,VALID,131,VALID,0.740287,
2003-01-04, 02:30:00,VALID,918.784,VALID,0,VALID,91.9281,VALID,-0.101885,VALID,19.7353,VALID,119,VALID,0.744792,
2003-01-04, 02:31:00,VALID,918.784,VALID,0,VALID,91.9561,VALID,-0.0679233,VALID,19.7191,VALID,121,VALID,1.05621,
2003-01-04, 02:32:00,VALID,918.757,VALID,0,VALID,92.0057,VALID,-0.0679233,VALID,19.7131,VALID,122,VALID,1.06315,
2003-01-04, 02:33:00,VALID,918.744,VALID,0,VALID,92.0171,VALID,-0.0849042,VALID,19.6967,VALID,135,VALID,0.651242,
2003-01-04, 02:34:00,VALID,918.71,VALID,0,VALID,92.0108,VALID,-0.101885,VALID,19.6937,VALID,132,VALID,0.750211,
2003-01-04, 02:35:00,VALID,918.703,VALID,0,VALID,91.9879,VALID,-0.101885,VALID,19.6806,VALID,114,VALID,1.07192,
2003-01-04, 02:36:00,VALID,918.682,VALID,0,VALID,92.04,VALID,-0.0849042,VALID,19.6674,VALID,104,VALID,0.995683,
2003-01-04, 02:37:00,VALID,918.685,VALID,0,VALID,92.1608,VALID,-0.0679233,VALID,19.6547,VALID,112,VALID,1.02001,
2003-01-04, 02:38:00,VALID,918.678,VALID,0,VALID,92.2931,VALID,0,VALID,19.608,VALID,107,VALID,1.17308,
2003-01-04, 02:39:00,VALID,918.687,VALID,0,VALID,92.349,VALID,0.0169808,VALID,19.5986,VALID,112,VALID,1.05912,
2003-01-04, 02:40:00,VALID,918.679,VALID,0,VALID,92.4062,VALID,0,VALID,19.5856,VALID,94,VALID,0.798971,
2003-01-04, 02:41:00,VALID,918.667,VALID,0,VALID,92.4228,VALID,0.0169808,VALID,19.5561,VALID,108,VALID,1.08934,
2003-01-04, 02:42:00,VALID,918.661,VALID,0,VALID,92.3884,VALID,0.0339617,VALID,19.5434,VALID,108,VALID,1.1231,
2003-01-04, 02:43:00,VALID,918.64,VALID,0,VALID,92.3274,VALID,0.0339617,VALID,19.5332,VALID,126,VALID,1.08702,
2003-01-04, 02:44:00,VALID,918.625,VALID,0,VALID,92.3287,VALID,0.0169808,VALID,19.5337,VALID,125,VALID,0.840545,
2003-01-04, 02:45:00,VALID,918.588,VALID,0,VALID,92.2829,VALID,0,VALID,19.5369,VALID,116,VALID,0.89614,
2003-01-04, 02:46:00,VALID,918.574,VALID,0,VALID,92.2117,VALID,0.0339617,VALID,19.527,VALID,125,VALID,0.756836,
2003-01-04, 02:47:00,VALID,918.553,VALID,0,VALID,92.2727,VALID,0.0169808,VALID,19.5111,VALID,132,VALID,0.712993,
2003-01-04, 02:48:00,VALID,918.539,VALID,0,VALID,92.3172,VALID,0,VALID,19.4919,VALID,138,VALID,0.681424,
2003-01-04, 02:49:00,VALID,918.507,VALID,0,VALID,92.4393,VALID,0.0169808,VALID,19.4591,VALID,124,VALID,0.425781,
2003-01-04, 02:50:00,VALID,918.493,VALID,0,VALID,92.658,VALID,0,VALID,19.4201,VALID,134,VALID,0.841992,
2003-01-04, 02:51:00,VALID,918.477,VALID,0,VALID,92.8399,VALID,0,VALID,19.3952,VALID,142,VALID,0.813117,
2003-01-04, 02:52:00,VALID,918.448,VALID,0,VALID,92.8704,VALID,0.0339617,VALID,19.3664,VALID,126,VALID,1.18051,
2003-01-04, 02:53:00,VALID,918.432,VALID,0,VALID,92.7419,VALID,-0.0509425,VALID,19.3542,VALID,133,VALID,1.35938,
2003-01-04, 02:54:00,VALID,918.402,VALID,0,VALID,92.4813,VALID,-0.0849042,VALID,19.347,VALID,137,VALID,1.4389,
2003-01-04, 02:55:00,VALID,918.382,VALID,0,VALID,92.2473,VALID,-0.0679233,VALID,19.3925,VALID,124,VALID,1.32454,
2003-01-04, 02:56:00,VALID,918.381,VALID,0,VALID,92.096,VALID,-0.0679233,VALID,19.4258,VALID,105,VALID,0.965712,
2003-01-04, 02:57:00,VALID,918.372,VALID,0,VALID,92.0095,VALID,-0.0849042,VALID,19.4285,VALID,111,VALID,1.41607,
2003-01-04, 02:58:00,VALID,918.366,VALID,0,VALID,91.7984,VALID,-0.0509425,VALID,19.4285,VALID,120,VALID,1.7519,
2003-01-04, 02:59:00,VALID,918.364,VALID,0,VALID,91.483,VALID,0,VALID,19.4703,VALID,112,VALID,1.49451,
2003-01-04, 03:00:00,VALID,918.365,VALID,0,VALID,91.3254,VALID,-0.0339617,VALID,19.4932,VALID,112,VALID,0.989329,
2003-01-04, 03:01:00,VALID,918.365,VALID,0,VALID,91.1944,VALID,-0.0849042,VALID,19.5093,VALID,114,VALID,1.80659,
2003-01-04, 03:02:00,VALID,918.367,VALID,0,VALID,91.0278,VALID,-0.0849042,VALID,19.5354,VALID,114,VALID,0.900586,
2003-01-04, 03:03:00,VALID,918.366,VALID,0,VALID,90.9744,VALID,-0.0849042,VALID,19.5349,VALID,116,VALID,1.40024,
2003-01-04, 03:04:00,VALID,918.351,VALID,0,VALID,90.846,VALID,-0.0679233,VALID,19.5516,VALID,107,VALID,1.12715,
2003-01-04, 03:05:00,VALID,918.335,VALID,0,VALID,90.8205,VALID,-0.0679233,VALID,19.558,VALID,119,VALID,1.63466,
2003-01-04, 03:06:00,VALID,918.312,VALID,0,VALID,90.6768,VALID,-0.0679233,VALID,19.5809,VALID,123,VALID,1.51131,
2003-01-04, 03:07:00,VALID,918.299,VALID,0,VALID,90.551,VALID,-0.0509425,VALID,19.5938,VALID,121,VALID,0.864654,
2003-01-04, 03:08:00,VALID,918.284,VALID,0,VALID,90.5382,VALID,-0.0679233,VALID,19.5802,VALID,101,VALID,0.756836,
2003-01-04, 03:09:00,VALID,918.267,VALID,0,VALID,90.5853,VALID,-0.0509425,VALID,19.5739,VALID,118,VALID,1.26302,
2003-01-04, 03:10:00,VALID,918.235,VALID,0,VALID,90.5408,VALID,-0.0339617,VALID,19.5811,VALID,103,VALID,2.07348,
2003-01-04, 03:11:00,VALID,918.219,VALID,0,VALID,90.462,VALID,-0.0339617,VALID,19.5871,VALID,99,VALID,1.21505,
2003-01-04, 03:12:00,VALID,918.188,VALID,0,VALID,90.598,VALID,-0.101885,VALID,19.5744,VALID,110,VALID,1.49787,
2003-01-04, 03:13:00,VALID,918.179,VALID,0,VALID,90.4937,VALID,-0.0679233,VALID,19.5874,VALID,114,VALID,1.33347,
2003-01-04, 03:14:00,VALID,918.161,VALID,0,VALID,90.4098,VALID,-0.0679233,VALID,19.6097,VALID,99,VALID,1.12383,
2003-01-04, 03:15:00,VALID,918.145,VALID,0,VALID,90.35,VALID,-0.0339617,VALID,19.6227,VALID,115,VALID,1.6213,
2003-01-04, 03:16:00,VALID,918.134,VALID,0,VALID,90.2292,VALID,-0.0679233,VALID,19.6229,VALID,109,VALID,1.22636,
2003-01-04, 03:17:00,VALID,918.136,VALID,0,VALID,89.9635,VALID,-0.0679233,VALID,19.6259,VALID,105,VALID,1.74938,
2003-01-04, 03:18:00,VALID,918.124,VALID,0,VALID,89.6608,VALID,-0.0679233,VALID,19.6649,VALID,84,VALID,1.28265,
2003-01-04, 03:19:00,VALID,918.125,VALID,0,VALID,89.5617,VALID,-0.101885,VALID,19.6942,VALID,88,VALID,0.95587,
2003-01-04, 03:20:00,VALID,918.122,VALID,0,VALID,89.5693,VALID,-0.0509425,VALID,19.6972,VALID,83,VALID,1.36102,
2003-01-04, 03:21:00,VALID,918.103,VALID,0,VALID,89.5858,VALID,-0.0339617,VALID,19.6808,VALID,47,VALID,1.3041,
2003-01-04, 03:22:00,VALID,918.095,VALID,0,VALID,89.877,VALID,-0.0339617,VALID,19.6125,VALID,71,VALID,1.2895,
2003-01-04, 03:23:00,VALID,918.088,VALID,0,VALID,90.4569,VALID,0.0509425,VALID,19.5434,VALID,88,VALID,1.19996,
2003-01-04, 03:24:00,VALID,918.061,VALID,0,VALID,90.6527,VALID,0.0509425,VALID,19.5081,VALID,110,VALID,1.0072,
2003-01-04, 03:25:00,VALID,918.044,VALID,0,VALID,90.8218,VALID,0.0169808,VALID,19.4852,VALID,120,VALID,1.36049,
2003-01-04, 03:26:00,VALID,918.029,VALID,0,VALID,90.9299,VALID,0.0339617,VALID,19.4822,VALID,114,VALID,1.22255,
2003-01-04, 03:27:00,VALID,918,VALID,0,VALID,90.9922,VALID,0.0339617,VALID,19.4728,VALID,112,VALID,1.02529,
2003-01-04, 03:28:00,VALID,918.005,VALID,0,VALID,91.1245,VALID,0.0849042,VALID,19.4499,VALID,113,VALID,1.29152,
2003-01-04, 03:29:00,VALID,917.998,VALID,0,VALID,91.2097,VALID,0.0339617,VALID,19.4338,VALID,118,VALID,1.41607,
2003-01-04, 03:30:00,VALID,917.992,VALID,0,VALID,91.2084,VALID,0.0339617,VALID,19.4171,VALID,126,VALID,1.36393,
2003-01-04, 03:31:00,VALID,917.998,VALID,0,VALID,91.1626,VALID,0.0339617,VALID,19.4174,VALID,122,VALID,1.30284,
2003-01-04, 03:32:00,VALID,918.004,VALID,0,VALID,91.2262,VALID,0.0339617,VALID,19.4077,VALID,120,VALID,1.15502,
2003-01-04, 03:33:00,VALID,918.008,VALID,0,VALID,91.2224,VALID,0.0679233,VALID,19.4112,VALID,125,VALID,1.15498,